Weather History for GEML - November, 2011

Change the Weather History Date:

Thursday, November 17, 2011

  Actual Average Record
Temperature  
Mean Temperature 58 °F -  
Max Temperature 66 °F 66 °F 77 °F (1997)
Min Temperature 51 °F 55 °F 46 °F (2010)
Degree Days  
Heating Degree Days 6    
Growing Degree Days 8 (Base 50)    
Moisture  
Dew Point 55 °F    
Average Humidity 79    
Maximum Humidity 100    
Minimum Humidity 68    
Precipitation  
Precipitation 0.00 in 0.06 in - ()
Sea Level Pressure  
Sea Level Pressure 30.13 in    
Wind  
Wind Speed 2 mph ()    
Max Wind Speed 6 mph    
Max Gust Speed -    
Visibility 7.2 miles    
Events      
Averages and records for this station are not official NWS values.
T = Trace of Precipitation, MM = Missing Value Source: Averaged Metar Reports

Daily Weather History Graph

Daily Weather History Graph

Search for Another Location

Airport or City:

Trip Planner

Search our weather history database for the weather conditions in past years. The results will help you decide how hot, cold, wet, or windy it might be!

Date:

Astronomy

Nov. 17, 2011 Rise Set
Actual Time 7:48 AM CET 6:04 PM CET
Civil Twilight 7:21 AM CET 6:31 PM CET
Nautical Twilight 6:50 AM CET 7:02 PM CET
Astronomical Twilight 6:20 AM CET 7:32 PM CET
Moon No Moon Rise 12:52 PM CET (11/17)
Length of Visible Light 11h 10m
Length of Day
10h 16m
Waning Gibbous, 62% of the Moon is Illuminated
Nov 17
Waning Gibbous
Nov 18
Last Quarter
Nov 25
New
Dec 2
First Quarter
Dec 10
Full

Hourly Weather History & Observations

Time (CET) Temp. Dew Point Humidity Pressure Visibility Wind Dir Wind Speed Gust Speed Precip Events Conditions
6:00 AM 51.8 °F 50.0 °F 94% 30.12 in 6.2 mi Calm Calm - N/A   Scattered Clouds
6:30 AM 55.4 °F 53.6 °F 94% 30.12 in 6.2 mi Calm Calm - N/A   Scattered Clouds
7:00 AM 56 °F 53 °F 85% 30.12 in 16 mi NW 2.3 mph - -   Partly Cloudy
7:00 AM 51.8 °F 50.0 °F 94% 30.12 in 6.2 mi NW 2.3 mph - N/A   Scattered Clouds
7:30 AM 53.6 °F 51.8 °F 94% 30.12 in 6.2 mi Calm Calm - N/A   Scattered Clouds
8:00 AM 51.8 °F 50.0 °F 94% 30.12 in 6.2 mi NW 2.3 mph - N/A   Scattered Clouds
8:30 AM 53.6 °F 53.6 °F 100% 30.12 in 6.2 mi Calm Calm - N/A   Scattered Clouds
9:00 AM 57.2 °F 55.4 °F 94% 30.15 in 6.2 mi Calm Calm - N/A   Scattered Clouds
9:30 AM 62.6 °F 59.0 °F 88% 30.15 in 6.2 mi Calm Calm - N/A   Scattered Clouds
10:00 AM 64.4 °F 55.4 °F 73% 30.15 in 6.2 mi Variable 2.3 mph - N/A   Scattered Clouds
10:30 AM 64.4 °F 57.2 °F 77% 30.15 in 6.2 mi ESE 4.6 mph - N/A   Scattered Clouds
11:00 AM 64.4 °F 55.4 °F 73% 30.15 in 6.2 mi ESE 5.8 mph - N/A   Scattered Clouds
11:30 AM 64.4 °F 55.4 °F 73% 30.15 in 6.2 mi ESE 3.5 mph - N/A   Scattered Clouds
12:00 PM 66.2 °F 57.2 °F 73% 30.15 in 6.2 mi East 4.6 mph - N/A   Scattered Clouds
12:30 PM 66.2 °F 57.2 °F 73% 30.15 in 6.2 mi ESE 3.5 mph - N/A   Scattered Clouds
1:00 PM 65 °F 57 °F 68% 30.14 in 16 mi ENE 3.5 mph - -   Partly Cloudy
1:00 PM 66.2 °F 57.2 °F 73% 30.15 in 6.2 mi ENE 3.5 mph - N/A   Scattered Clouds
1:30 PM 66.2 °F 55.4 °F 68% 30.15 in 6.2 mi East 4.6 mph - N/A   Partly Cloudy
2:00 PM 66.2 °F 55.4 °F 68% 30.12 in 6.2 mi NE 3.5 mph - N/A   Partly Cloudy
2:30 PM 64.4 °F 57.2 °F 77% 30.12 in 6.2 mi ENE 5.8 mph - N/A   Partly Cloudy
3:00 PM 64.4 °F 57.2 °F 77% 30.12 in 6.2 mi East 5.8 mph - N/A   Partly Cloudy
3:30 PM 64.4 °F 55.4 °F 73% 30.12 in 6.2 mi East 4.6 mph - N/A   Partly Cloudy
4:00 PM 64.4 °F 55.4 °F 73% 30.12 in 6.2 mi East 3.5 mph - N/A   Partly Cloudy
4:30 PM 64.4 °F 55.4 °F 73% 30.12 in 6.2 mi ENE 3.5 mph - N/A   Partly Cloudy
5:00 PM 64.4 °F 55.4 °F 73% 30.12 in 6.2 mi ENE 4.6 mph - N/A   Partly Cloudy
5:30 PM 64.4 °F 55.4 °F 73% 30.12 in 6.2 mi Variable 2.3 mph - N/A   Partly Cloudy
6:00 PM 64.4 °F 55.4 °F 73% 30.12 in 6.2 mi ENE 5.8 mph - N/A   Partly Cloudy
6:30 PM 64.4 °F 55.4 °F 73% 30.12 in 6.2 mi ENE 5.8 mph - N/A   Partly Cloudy
7:00 PM 63 °F 56 °F 72% 30.12 in 16 mi East 5.8 mph - -   Scattered Clouds
7:00 PM 64.4 °F 55.4 °F 73% 30.12 in 6.2 mi East 5.8 mph - N/A   Partly Cloudy